Tracking 19563 objects as of 20-Mar-2019
HD Live streaming from Space Station
objects crossing your sky now

LEMUR 2 PETERWEBSTER

Track LEMUR 2 PETERWEBSTER now!
10-day predictions
LEMUR 2 PETERWEBSTER is classified as:


NORAD ID: 43124
Int'l Code: 2018-004P
Perigee: 495.4 km
Apogee: 508.4 km
Inclination: 97.5 °
Period: 94.5 minutes
Semi major axis: 6872 km
RCS: Unknown
Launch date: January 12, 2018
Source: United States (US)
Launch site: SRIHARIKOTA (SRI)
aabbcc
Your satellite tracking list
Your tracking list is empty




NASA's NSSDC Master Catalog

Two Line Element Set (TLE):
1 43124U 18004P   19078.50125749 +.00002090 +00000-0 +90109-4 0  9999
2 43124 097.4991 146.5712 0009410 202.2825 157.8004 15.23672884065626
Source of the keplerian elements: AFSPC